Home > Weather > Richmond > Past weeks

Flag for Canada Weather for the Past 2 Weeks in Richmond, British Columbia, Canada

Now
50 °F

Light rain. Mostly cloudy.


Feels Like: 46 °F
Forecast: 43 / 50 °F
Wind: 12 mph from East

Location: Vancouver International Airport

Current Time: Feb 11, 2016 at 3:30:31 PM

Latest Report: Feb 11, 2016 at 2:00 PM


Visibility: 30 mi

Pressure: 30.12 "Hg

Humidity: 82%

Dew point: 45 °F

Location of RichmondLocation

Historic Weather in Richmond — Graph

°F

Richmond Temperature Yesterday

Maximum temperature yesterday: 54 °F (at 7:00 PM)
Minimum temperature yesterday: 41 °F (at 12:00 AM)
Average temperature yesterday: 47 °F

High & Low Weather Summary for the Past Weeks

 TemperatureHumidityPressure
High55 °F (Feb 9, 1:00 PM)100% (Feb 1, 3:45 AM)30.61 "Hg (Feb 1, 3:45 AM)
Low36 °F (Feb 1, 3:45 AM)62% (Jan 28, 1:00 PM)29.59 "Hg (Jan 29, 10:00 AM)
Average44 °F87%30.13 "Hg
* Reported Jan 27 1:00 PM — Feb 11 1:00 PM, Richmond, Weather by CustomWeather, © 2016

Note: Actual official high and low records may vary slightly from our data, if they occured in-between our weather recording intervals... More about our weather records

Advertising

Richmond Weather History for the Previous 24 Hours

 ConditionsComfort  
Time TempWeatherWind HumidityBarometerVisibility
1:00 PM
Thu, Feb 11
48 °FLight rain. Mostly cloudy.17 mph82%30.13 "Hg15 mi
12:00 PM48 °FLight rain. Mostly cloudy.6 mph87%30.19 "Hg15 mi
11:00 AM46 °FMostly cloudy.3 mph87%30.20 "Hg30 mi
10:00 AM45 °FMostly cloudy.2 mph100%30.20 "Hg30 mi
9:00 AM45 °FMostly cloudy.7 mph93%30.21 "Hg30 mi
8:00 AM43 °FMostly cloudy.3 mph100%30.21 "Hg30 mi
7:00 AM45 °FMostly cloudy.No wind87%30.22 "Hg20 mi
6:00 AM43 °FMostly cloudy.5 mph93%30.24 "Hg20 mi
5:00 AM43 °FMostly cloudy.6 mph93%30.25 "Hg20 mi
4:00 AM41 °FMostly cloudy.6 mph100%30.27 "Hg20 mi
3:00 AM43 °FPassing clouds.5 mph93%30.29 "Hg20 mi
2:00 AM45 °FPassing clouds.7 mph93%30.29 "Hg20 mi
1:00 AM46 °FPassing clouds.8 mph93%30.29 "Hg20 mi
12:00 AM43 °FFog.5 mph93%30.31 "Hg20 mi
11:00 PM
Wed, Feb 10
43 °FClear.8 mph100%30.29 "Hg20 mi
10:00 PM45 °FClear.8 mph93%30.28 "Hg15 mi
9:00 PM43 °FClear.6 mph93%30.28 "Hg15 mi
8:00 PM48 °FPassing clouds.5 mph94%30.26 "Hg15 mi
7:00 PM54 °FPassing clouds.6 mph77%30.24 "Hg15 mi
6:00 PM50 °FPassing clouds.3 mph88%30.22 "Hg15 mi
5:00 PM52 °FPassing clouds.12 mph88%30.20 "Hg15 mi
4:00 PM52 °FBroken clouds.7 mph88%30.20 "Hg15 mi
3:00 PM52 °FLight rain. Cloudy.14 mph88%30.18 "Hg15 mi
Weather by CustomWeather, © 2016

See weather overviewHow to use our weather pages